TimeCST,TemperatureF,Dew PointF,Humidity,Sea Level PressureIn,VisibilityMPH,Wind Direction,Wind SpeedMPH,Gust SpeedMPH,PrecipitationIn,Events,Conditions,WindDirDegrees,DateUTC
12:15 AM,35.1,35.1,100,29.84,0.5,South,10.4,-,N/A,Fog,Fog,170,2013-01-28 06:15:00
12:35 AM,35.8,35.8,100,29.84,0.5,South,12.7,-,N/A,Fog,Fog,170,2013-01-28 06:35:00
12:55 AM,36.5,36.5,100,29.83,0.5,South,11.5,-,N/A,,Light Drizzle,180,2013-01-28 06:55:00
1:15 AM,36.7,36.7,100,29.83,0.5,South,10.4,-,N/A,,Drizzle,190,2013-01-28 07:15:00
1:35 AM,36.9,36.9,100,29.83,0.5,South,9.2,-,N/A,,Light Drizzle,190,2013-01-28 07:35:00
1:55 AM,37.4,37.4,100,29.82,0.2,South,11.5,-,N/A,Rain,Light Rain,180,2013-01-28 07:55:00
2:15 AM,37.9,37.8,99,29.81,0.2,South,15.0,-,0.01,Rain,Light Rain,180,2013-01-28 08:15:00
2:55 AM,39.6,39.4,99,29.81,0.5,South,15.0,-,0.03,Rain,Light Rain,190,2013-01-28 08:55:00
3:15 AM,40.1,39.9,99,29.81,0.8,SSW,11.5,-,N/A,,Overcast,210,2013-01-28 09:15:00
3:35 AM,40.1,39.7,99,29.81,0.5,South,13.8,-,N/A,Fog,Fog,190,2013-01-28 09:35:00
4:15 AM,40.5,40.3,99,29.80,0.5,SSW,10.4,-,N/A,Fog,Fog,200,2013-01-28 10:15:00
4:35 AM,40.6,40.5,99,29.81,0.2,SSW,8.1,-,N/A,Fog,Fog,200,2013-01-28 10:35:00
4:55 AM,41.0,40.8,99,29.81,0.2,SSW,9.2,-,N/A,,Drizzle,200,2013-01-28 10:55:00
5:15 AM,41.7,41.4,99,29.81,0.5,SSW,10.4,-,N/A,Fog,Fog,210,2013-01-28 11:15:00
5:35 AM,41.0,40.6,99,29.81,0.2,SW,10.4,-,0.01,Rain,Rain,220,2013-01-28 11:35:00
5:55 AM,39.7,39.7,100,29.82,0.2,SW,9.2,-,0.01,,Drizzle,230,2013-01-28 11:55:00
6:15 AM,41.4,41.2,99,29.83,0.2,SW,9.2,-,N/A,,Drizzle,230,2013-01-28 12:15:00
6:35 AM,41.0,41.0,100,29.84,0.2,SW,10.4,-,N/A,,Light Drizzle,230,2013-01-28 12:35:00
6:55 AM,41.0,41.0,100,29.84,0.2,WSW,9.2,-,N/A,Fog,Fog,240,2013-01-28 12:55:00
7:15 AM,41.0,40.6,99,29.85,0.2,WSW,8.1,-,N/A,Fog,Fog,250,2013-01-28 13:15:00
7:35 AM,41.0,41.0,100,29.87,0.2,WSW,9.2,-,N/A,Fog,Fog,250,2013-01-28 13:35:00
7:55 AM,40.3,40.1,99,29.88,0.2,WSW,9.2,-,N/A,Rain,Rain,250,2013-01-28 13:55:00
8:15 AM,40.8,40.5,99,29.89,0.2,West,9.2,-,N/A,,Light Drizzle,280,2013-01-28 14:15:00
8:35 AM,41.4,41.2,99,29.89,0.2,WNW,13.8,-,N/A,Fog,Fog,300,2013-01-28 14:35:00
8:55 AM,41.4,41.2,99,29.90,1.2,WNW,8.1,-,N/A,,Overcast,290,2013-01-28 14:55:00
9:15 AM,41.0,41.0,100,29.91,0.5,WNW,9.2,-,N/A,Fog,Fog,300,2013-01-28 15:15:00
9:35 AM,41.0,40.6,99,29.91,1.8,WNW,8.1,-,N/A,,Overcast,290,2013-01-28 15:35:00
9:55 AM,40.6,40.5,99,29.92,3.0,WNW,8.1,-,N/A,,Overcast,300,2013-01-28 15:55:00
10:15 AM,40.3,40.3,100,29.92,4.0,WNW,8.1,-,N/A,,Overcast,290,2013-01-28 16:15:00
10:35 AM,40.3,40.3,100,29.93,5.0,WNW,5.8,-,N/A,,Overcast,290,2013-01-28 16:35:00
11:15 AM,41.9,41.4,98,29.94,10.0,West,5.8,-,N/A,,Overcast,280,2013-01-28 17:15:00
11:35 AM,41.9,39.9,93,29.93,10.0,WNW,6.9,-,N/A,,Overcast,290,2013-01-28 17:35:00
11:55 AM,42.8,40.3,91,29.93,10.0,NW,4.6,-,N/A,,Overcast,310,2013-01-28 17:55:00
12:15 PM,43.0,39.4,87,29.92,10.0,WNW,3.5,-,N/A,,Overcast,290,2013-01-28 18:15:00
12:35 PM,43.2,39.9,88,29.92,10.0,North,5.8,-,N/A,,Overcast,10,2013-01-28 18:35:00
12:55 PM,42.8,39.6,88,29.91,10.0,Calm,Calm,-,N/A,,Overcast,0,2013-01-28 18:55:00
1:15 PM,43.2,39.7,88,29.91,10.0,Calm,Calm,-,N/A,,Overcast,0,2013-01-28 19:15:00
1:35 PM,43.2,39.7,88,29.91,10.0,Calm,Calm,-,N/A,,Overcast,0,2013-01-28 19:35:00
1:55 PM,43.2,40.1,89,29.92,10.0,SSW,4.6,-,N/A,,Overcast,210,2013-01-28 19:55:00
2:15 PM,42.8,39.7,89,29.92,10.0,Calm,Calm,-,N/A,,Overcast,0,2013-01-28 20:15:00
2:35 PM,43.2,39.7,88,29.92,10.0,Calm,Calm,-,N/A,,Overcast,0,2013-01-28 20:35:00
2:55 PM,43.2,40.1,89,29.92,10.0,NNE,5.8,-,N/A,,Overcast,30,2013-01-28 20:55:00
3:15 PM,43.3,40.1,88,29.92,10.0,ENE,3.5,-,N/A,,Overcast,60,2013-01-28 21:15:00
3:35 PM,42.8,39.9,90,29.91,10.0,East,5.8,-,N/A,,Overcast,80,2013-01-28 21:35:00
3:55 PM,41.9,39.6,91,29.91,7.0,East,5.8,-,N/A,,Overcast,90,2013-01-28 21:55:00
4:15 PM,41.0,39.2,93,29.92,7.0,SE,5.8,-,N/A,,Overcast,130,2013-01-28 22:15:00
4:35 PM,40.3,38.7,94,29.92,7.0,ESE,5.8,-,N/A,,Overcast,120,2013-01-28 22:35:00
4:55 PM,40.1,38.5,94,29.92,7.0,East,5.8,-,N/A,,Overcast,100,2013-01-28 22:55:00
5:15 PM,39.0,37.8,95,29.92,7.0,ESE,6.9,-,N/A,,Overcast,110,2013-01-28 23:15:00
5:35 PM,38.3,37.6,97,29.92,5.0,ESE,8.1,-,N/A,,Overcast,120,2013-01-28 23:35:00
5:55 PM,38.3,37.6,97,29.92,4.0,East,5.8,-,N/A,,Overcast,80,2013-01-28 23:55:00
6:15 PM,38.3,37.8,98,29.92,4.0,East,6.9,-,N/A,,Overcast,100,2013-01-29 00:15:00
6:35 PM,37.8,37.4,99,29.92,3.0,East,5.8,-,N/A,,Overcast,100,2013-01-29 00:35:00
6:55 PM,37.8,37.4,99,29.91,2.5,East,6.9,-,N/A,,Overcast,90,2013-01-29 00:55:00
7:15 PM,38.8,38.5,99,29.90,3.0,East,5.8,-,N/A,,Overcast,80,2013-01-29 01:15:00
7:35 PM,38.7,38.3,99,29.90,4.0,ESE,5.8,-,N/A,,Overcast,110,2013-01-29 01:35:00
7:55 PM,39.2,38.7,98,29.90,4.0,ESE,9.2,-,N/A,,Overcast,110,2013-01-29 01:55:00
8:15 PM,39.4,38.8,98,29.89,3.0,ESE,9.2,-,N/A,,Overcast,110,2013-01-29 02:15:00
8:35 PM,39.6,39.2,99,29.88,0.5,ESE,9.2,-,N/A,Fog,Fog,110,2013-01-29 02:35:00
8:55 PM,40.3,40.1,99,29.86,0.5,East,12.7,-,N/A,Fog,Fog,100,2013-01-29 02:55:00
9:15 PM,41.2,41.0,99,29.86,0.5,ESE,12.7,-,N/A,Fog,Fog,110,2013-01-29 03:15:00
9:35 PM,40.6,40.3,99,29.84,0.5,ESE,16.1,-,N/A,Rain,Light Rain,120,2013-01-29 03:35:00
9:55 PM,41.0,40.5,98,29.82,0.5,ESE,13.8,-,N/A,Rain-Thunderstorm,Light Thunderstorms and Rain,110,2013-01-29 03:55:00
10:15 PM,41.2,41.0,99,29.80,0.5,ESE,10.4,17.3,N/A,Rain-Thunderstorm,Light Thunderstorms and Rain,110,2013-01-29 04:15:00
10:35 PM,41.4,41.2,99,29.79,0.5,ESE,15.0,-,N/A,Rain,Light Rain,120,2013-01-29 04:35:00
10:55 PM,41.2,41.0,99,29.76,0.8,ESE,19.6,-,0.16,Rain-Thunderstorm,Light Thunderstorms and Rain,120,2013-01-29 04:55:00
11:15 PM,41.0,40.8,99,29.76,1.5,SE,16.1,-,N/A,Thunderstorm,Overcast,130,2013-01-29 05:15:00
11:35 PM,41.9,41.7,99,29.76,1.0,ESE,13.8,-,N/A,,Overcast,120,2013-01-29 05:35:00
11:55 PM,43.5,43.0,98,29.74,0.5,SE,12.7,18.4,N/A,Fog,Fog,140,2013-01-29 05:55:00